K5GTX Weather Reports


time (UTC)temp
F
wind
direction
speed
knots
gust
knots
rain 1hr
in
rain 24hr
in
rain mn
in
humidity
%
barometer
mb
20260509173029 80 66 0.9 2.6 0.00 0.00 0.00 99 1017.2
20260509172526 79 126 0.9 5.2 0.00 0.00 0.00 99 1017.2
20260509172021 79 90 0.0 2.6 0.00 0.00 0.00 99 1017.4
20260509171518 79 30 3.5 6.1 0.00 0.00 0.00 99 1017.3
20260509171015 78 53 2.6 6.1 0.00 0.00 0.00 99 1017.4
20260509170510 79 27 3.5 3.5 0.00 0.00 0.00 99 1017.3
20260509170006 79 180 0.9 6.1 0.00 0.00 0.00 99 1017.2
20260509165505 78 345 0.9 5.2 0.00 0.00 0.00 99 1017.1
20260509165001 78 345 0.9 11.3 0.00 0.00 0.00 99 1017.3
20260509164457 78 356 1.7 6.1 0.00 0.00 0.00 99 1017.4
20260509163953 77 67 4.3 7.0 0.00 0.00 0.00 99 1017.2
20260509163451 78 294 2.6 6.1 0.00 0.00 0.00 99 1017.4
20260509162949 78 348 3.5 6.1 0.00 0.00 0.00 99 1017.2
20260509162449 77 72 2.6 4.3 0.00 0.00 0.00 99 1017.1
20260509161944 77 46 4.3 6.1 0.00 0.00 0.00 99 1017.4
20260509161441 77 341 2.6 7.8 0.00 0.00 0.00 99 1017.2
20260509160936 77 355 2.6 4.3 0.00 0.00 0.00 99 1017.3
20260509160432 76 39 3.5 6.1 0.00 0.00 0.00 99 1017.4
20260509155927 77 86 0.0 8.7 0.00 0.00 0.00 99 1017.1
20260509155424 76 90 0.9 4.3 0.00 0.00 0.00 99 1017.2
20260509154920 75 32 4.3 6.1 0.00 0.00 0.00 99 1017.3
20260509154417 76 26 1.7 5.2 0.00 0.00 0.00 99 1017.2
20260509153914 75 354 2.6 4.3 0.00 0.00 0.00 99 1017.4
20260509153411 74 14 0.9 6.1 0.00 0.00 0.00 99 1017.3
20260509152908 74 15 3.5 4.3 0.00 0.00 0.00 99 1017.2
20260509152404 74 298 2.6 4.3 0.00 0.00 0.00 99 1017.3
20260509151901 74 283 2.6 5.2 0.00 0.00 0.00 99 1017.3
20260509151357 74 21 1.7 4.3 0.00 0.00 0.00 99 1017.2
20260509150855 73 355 2.6 4.3 0.00 0.00 0.00 99 1017.4
20260509150353 73 60 0.0 4.3 0.00 0.00 0.00 99 1017.3
20260509145850 73 272 4.3 4.3 0.00 0.00 0.00 99 1017.5
20260509145345 72 9 1.7 4.3 0.00 0.00 0.00 99 1017.3
20260509144841 73 318 2.6 4.3 0.00 0.00 0.00 99 1017.6
20260509144338 72 356 1.7 5.2 0.00 0.00 0.00 99 1017.5
20260509143835 72 321 2.6 5.2 0.00 0.00 0.00 99 1017.5
20260509143333 72 40 2.6 4.3 0.00 0.00 0.00 99 1017.4
20260509142829 72 0 1.7 7.0 0.00 0.00 0.00 99 1017.4
20260509142325 72 339 1.7 4.3 0.00 0.00 0.00 99 1017.3
20260509141821 72 306 0.0 6.1 0.00 0.00 0.00 99 1017.2
20260509141318 72 12 3.5 7.0 0.00 0.00 0.00 99 1017.0
20260509140814 73 266 4.3 4.3 0.00 0.00 0.00 99 1017.2
20260509140312 72 308 4.3 5.2 0.00 0.00 0.00 99 1017.2
20260509135810 72 358 0.0 5.2 0.00 0.00 0.00 99 1017.2
20260509135307 72 35 3.5 6.1 0.00 0.00 0.00 99 1017.1
20260509134804 72 354 0.0 2.6 0.00 0.00 0.00 99 1016.9
20260509134301 71 339 2.6 4.3 0.00 0.00 0.00 99 1017.0
20260509133758 71 25 4.3 5.2 0.00 0.00 0.00 99 1017.1
20260509133254 71 297 0.9 3.5 0.00 0.00 0.00 99 1017.0
20260509132754 71 349 0.0 3.5 0.00 0.00 0.00 99 1016.6
20260509132252 71 98 0.0 2.6 0.00 0.00 0.00 99 1016.9
20260509131748 71 320 2.6 4.3 0.00 0.00 0.00 99 1017.1
20260509131245 70 292 2.6 3.5 0.00 0.00 0.00 99 1016.8
20260509130741 70 14 0.0 1.7 0.00 0.00 0.00 99 1016.8
20260509130237 70 270 0.0 0.0 0.00 0.00 0.00 99 1017.0
20260509125733 70 90 0.0 1.7 0.00 0.00 0.00 99 1016.6
20260509125231 70 286 0.0 0.9 0.00 0.00 0.00 99 1016.7
20260509124727 70 81 0.0 0.0 0.00 0.00 0.00 99 1017.0
20260509124223 69 82 0.0 1.7 0.00 0.00 0.00 99 1016.6
20260509123722 69 240 0.0 0.9 0.00 0.00 0.00 99 1016.7
20260509123219 69 90 0.0 0.0 0.00 0.00 0.00 99 1017.0
20260509122714 69 8 0.0 0.9 0.00 0.00 0.00 99 1016.9
20260509122211 69 90 0.0 0.0 0.00 0.00 0.00 99 1016.7
20260509121708 69 90 0.0 0.0 0.00 0.00 0.00 99 1016.8
20260509121206 69 90 0.0 0.0 0.00 0.00 0.00 99 1016.8
20260509120704 69 90 0.0 0.0 0.00 0.00 0.00 99 1016.8
20260509120201 68 90 0.0 0.0 0.00 0.00 0.00 99 1016.7
20260509115659 68 90 0.0 0.0 0.00 0.00 0.00 99 1016.5
20260509115156 69 90 0.0 0.0 0.00 0.00 0.00 99 1016.6
20260509114654 68 99 0.0 0.0 0.00 0.00 0.00 99 1016.5
20260509114153 69 90 0.0 0.0 0.00 0.00 0.00 99 1016.5
20260509113651 69 90 0.0 0.0 0.00 0.00 0.00 99 1016.3
20260509113147 69 99 0.0 0.0 0.00 0.00 0.00 99 1016.1
20260509112644 69 90 0.0 1.7 0.00 0.00 0.00 99 1015.9
20260509112141 70 120 1.7 1.7 0.00 0.00 0.00 99 1015.9
20260509111639 70 111 0.9 1.7 0.00 0.00 0.00 99 1015.8
20260509111135 69 90 0.0 0.9 0.00 0.00 0.00 99 1015.8
20260509110632 69 82 0.9 0.9 0.00 0.00 0.00 99 1015.8
20260509110129 69 81 0.0 0.9 0.00 0.00 0.00 99 1015.8
20260509105627 69 90 0.0 0.9 0.00 0.00 0.00 99 1015.6
20260509105125 69 74 0.0 0.0 0.00 0.00 0.00 99 1015.8
20260509104622 70 74 0.0 1.7 0.00 0.00 0.00 99 1015.3
20260509104118 70 90 0.0 0.9 0.00 0.00 0.00 99 1015.5
20260509103616 69 99 0.0 1.7 0.00 0.00 0.00 99 1015.4
20260509103114 69 139 1.7 1.7 0.00 0.00 0.00 99 1015.4
20260509102611 70 90 0.0 1.7 0.00 0.00 0.00 99 1015.4
20260509102108 70 106 0.9 1.7 0.00 0.00 0.00 99 1015.4
20260509101604 70 114 0.0 0.9 0.00 0.00 0.00 99 1015.6
20260509101101 70 111 0.9 0.9 0.00 0.00 0.00 99 1015.6
20260509100558 70 106 0.0 1.7 0.00 0.00 0.00 99 1015.4
20260509100056 70 99 0.0 0.9 0.00 0.00 0.00 99 1015.4
20260509095552 70 84 1.7 1.7 0.00 0.00 0.00 99 1015.6
20260509095050 70 35 0.0 0.9 0.00 0.00 0.00 99 1015.4
20260509094545 70 97 0.9 1.7 0.00 0.00 0.00 99 1015.4
20260509094043 70 74 0.9 0.9 0.00 0.00 0.00 99 1015.5
20260509093541 70 90 0.9 2.6 0.00 0.00 0.00 99 1015.4
20260509093038 70 21 1.7 2.6 0.00 0.00 0.00 99 1015.3
20260509092536 70 48 1.7 3.5 0.00 0.00 0.00 99 1015.2
20260509092035 70 0 1.7 1.7 0.00 0.00 0.00 99 1015.2
20260509091532 69 303 1.7 1.7 0.00 0.00 0.00 99 1015.3
20260509091028 69 81 0.0 1.7 0.00 0.00 0.00 99 1014.4
20260509090526 69 54 0.0 2.6 0.00 0.00 0.00 99 1014.0
20260509090023 69 120 0.9 2.6 0.00 0.00 0.00 99 1013.8
20260509085520 69 117 0.9 2.6 0.00 0.00 0.00 99 1014.0
20260509085016 69 99 0.0 1.7 0.00 0.00 0.00 99 1014.0
20260509084513 69 114 0.9 1.7 0.00 0.00 0.00 99 1014.1
20260509084010 69 111 0.9 4.3 0.00 0.00 0.00 99 1014.3
20260509083508 69 127 1.7 2.6 0.00 0.00 0.00 99 1014.2
20260509083004 70 135 0.0 2.6 0.00 0.00 0.00 99 1014.4
20260509082502 70 135 0.0 2.6 0.00 0.00 0.00 99 1014.6
20260509081959 70 151 0.0 2.6 0.00 0.00 0.00 99 1014.8
20260509081456 70 90 0.0 1.7 0.00 0.00 0.00 99 1014.9
20260509080952 70 196 1.7 2.6 0.00 0.00 0.00 99 1015.2
20260509080451 70 105 0.0 1.7 0.00 0.00 0.00 99 1015.4
20260509075949 71 82 0.9 1.7 0.00 0.00 0.00 99 1015.7
20260509075445 71 98 0.0 0.9 0.00 0.00 0.00 99 1015.9
20260509074943 71 82 0.0 1.7 0.00 0.00 0.00 99 1016.0
20260509074441 71 96 1.7 1.7 0.00 0.00 0.00 99 1016.4
20260509073937 71 109 0.0 1.7 0.00 0.00 0.00 99 1016.4
20260509073433 71 99 0.0 1.7 0.00 0.00 0.00 99 1016.7
20260509072930 71 90 0.0 2.6 0.00 0.00 0.00 99 1016.7
20260509072427 71 105 0.0 1.7 0.00 0.00 0.00 99 1016.7
20260509071923 71 106 0.0 0.9 0.00 0.00 0.00 99 1016.8
20260509071420 71 84 0.9 1.7 0.00 0.00 0.00 99 1017.1
20260509070918 71 233 1.7 1.7 0.00 0.00 0.00 99 1017.0
20260509070415 71 240 0.0 2.6 0.00 0.00 0.00 99 1017.1
20260509065909 71 225 1.7 2.6 0.00 0.00 0.00 99 1017.1
20260509065406 71 288 1.7 4.3 0.00 0.00 0.00 99 1017.0
20260509064902 71 270 0.9 2.6 0.00 0.00 0.00 99 1016.9
20260509064400 70 280 0.0 3.5 0.00 0.00 0.00 99 1016.7
20260509063858 70 270 0.0 2.6 0.00 0.00 0.00 99 1016.6
20260509063353 70 243 0.0 2.6 0.00 0.00 0.00 99 1016.4
20260509062851 70 247 0.0 1.7 0.00 0.00 0.00 99 1016.4
20260509062348 70 235 0.0 4.3 0.00 0.00 0.00 99 1016.4
20260509061845 70 190 1.7 2.6 0.00 0.00 0.00 99 1016.5
20260509061343 69 60 0.0 1.7 0.00 0.00 0.00 99 1016.4
20260509060839 69 192 0.0 0.9 0.00 0.00 0.00 99 1016.5
20260509060337 69 59 1.7 1.7 0.00 0.00 0.00 99 1016.6
20260509055832 69 81 0.0 2.6 0.00 0.00 0.00 99 1016.5
20260509055327 70 90 0.0 0.0 0.00 0.00 0.00 99 1016.7
20260509054824 71 187 0.0 0.0 0.00 0.00 0.00 99 1017.3
20260509054321 71 187 0.0 0.0 0.00 0.00 0.00 99 1017.1
20260509053820 71 195 0.0 0.0 0.00 0.00 0.00 99 1017.1
20260509053316 71 306 0.0 0.9 0.00 0.00 0.00 99 1017.4
20260509052815 71 342 0.0 0.0 0.00 0.00 0.00 99 1017.4
20260509052312 71 240 0.0 1.7 0.00 0.00 0.00 99 1017.1
20260509051810 71 255 0.0 2.6 0.00 0.00 0.00 99 1017.6
20260509051307 71 255 0.9 1.7 0.00 0.00 0.00 99 1018.0
20260509050804 71 14 0.0 4.3 0.00 0.00 0.00 99 1018.0
20260509050300 70 49 2.6 2.6 0.00 0.00 0.00 99 1017.8
20260509045757 70 0 1.7 1.7 0.00 0.60 0.60 99 1017.4
20260509045254 70 29 0.0 0.9 0.00 0.60 0.60 99 1016.6
20260509044752 70 188 0.0 0.0 0.00 0.60 0.60 99 1016.5
20260509044249 71 195 0.9 2.6 0.00 0.60 0.60 99 1016.1
20260509043745 71 188 0.0 2.6 0.00 0.60 0.60 99 1016.4
20260509043241 71 77 0.0 0.9 0.00 0.60 0.60 99 1016.2
20260509042738 71 186 0.9 2.6 0.00 0.60 0.60 99 1016.1
20260509042234 71 139 0.0 3.5 0.00 0.60 0.60 99 1016.0
20260509041731 71 206 0.0 2.6 0.00 0.60 0.60 99 1015.8
20260509041228 71 157 0.0 3.5 0.00 0.60 0.60 99 1016.5
20260509040727 71 210 3.5 3.5 0.00 0.60 0.60 99 1016.4
20260509040223 71 114 0.0 3.5 0.00 0.60 0.60 99 1016.0
20260509035719 71 99 0.0 2.6 0.00 0.60 0.60 99 1016.4
20260509035216 72 105 0.0 0.9 0.00 0.60 0.60 99 1016.5
20260509034714 72 0 0.0 0.0 0.00 0.60 0.60 99 1017.1
20260509034211 72 0 0.0 0.0 0.00 0.60 0.60 99 1017.5
20260509033708 72 15 0.0 1.7 0.00 0.60 0.60 99 1017.2
20260509033205 72 15 0.0 1.7 0.00 0.60 0.60 99 1017.4
20260509032702 72 246 0.0 0.0 0.00 0.60 0.60 99 1017.1
20260509032159 72 246 0.0 0.0 0.00 0.60 0.60 99 1016.8
20260509031656 72 251 0.0 0.9 0.00 0.60 0.60 99 1016.7
20260509031154 72 90 0.0 0.0 0.00 0.60 0.60 99 1016.7
20260509030652 72 106 0.0 1.7 0.00 0.60 0.60 99 1016.7
20260509030149 72 90 0.0 0.0 0.00 0.60 0.60 99 1017.0
20260509025645 71 90 0.0 1.7 0.00 0.60 0.60 99 1016.7
20260509025141 72 69 0.0 1.7 0.00 0.60 0.60 99 1016.7
20260509024637 71 74 0.9 0.9 0.00 0.60 0.60 99 1016.5
20260509024133 71 74 0.0 0.9 0.00 0.60 0.60 99 1016.1
20260509023631 71 90 0.0 0.0 0.00 0.60 0.60 99 1015.7
20260509023127 71 98 0.0 1.7 0.00 0.60 0.60 99 1015.7
20260509022623 71 190 0.0 2.6 0.00 0.60 0.60 99 1015.4
20260509022122 71 140 0.0 2.6 0.00 0.60 0.60 99 1015.3
20260509021618 71 99 0.0 1.7 0.00 0.60 0.60 99 1015.5
20260509021115 72 114 0.0 0.9 0.00 0.60 0.60 99 1015.4
20260509020614 71 98 0.0 1.7 0.00 0.60 0.60 99 1015.4
20260509020110 71 97 0.0 2.6 0.00 0.60 0.60 99 1015.4
20260509015610 71 105 0.0 1.7 0.00 0.60 0.60 99 1015.3
20260509015106 71 131 0.0 3.5 0.00 0.60 0.60 99 1015.2
20260509014602 71 81 0.0 1.7 0.00 0.60 0.60 99 1015.4
20260509014059 72 121 0.0 0.0 0.00 0.60 0.60 99 1015.0
20260509013556 72 139 0.0 1.7 0.00 0.60 0.60 99 1015.0
20260509013052 72 74 0.0 0.0 0.00 0.60 0.60 99 1015.0
20260509012549 72 114 0.0 0.0 0.00 0.60 0.60 99 1015.3
20260509012045 72 98 0.9 1.7 0.00 0.60 0.60 99 1015.3
20260509011543 72 106 0.0 1.7 0.00 0.60 0.60 99 1015.0
20260509011040 72 114 0.0 1.7 0.00 0.60 0.60 99 1014.9
20260509010538 72 188 0.0 0.9 0.00 0.60 0.60 99 1015.2
20260509010035 73 156 0.0 1.7 0.00 0.60 0.60 99 1015.0
20260509005532 73 98 0.0 2.6 0.00 0.60 0.60 99 1015.2
20260509005027 73 174 0.0 0.0 0.00 0.60 0.60 99 1014.9
20260509004524 73 111 0.0 1.7 0.00 0.60 0.60 99 1014.7
20260509004021 73 195 0.0 3.5 0.00 0.60 0.60 99 1014.5
20260509003519 74 109 0.0 4.3 0.00 0.60 0.60 99 1014.5
20260509003016 75 285 0.0 3.5 0.00 0.60 0.60 99 1014.4
20260509002514 75 196 1.7 3.5 0.00 0.60 0.60 99 1014.4
20260509002011 74 187 0.0 2.6 0.00 0.60 0.60 99 1014.6
20260509001508 74 144 0.0 3.5 0.00 0.60 0.60 99 1014.5
20260509001004 74 225 0.0 2.6 0.00 0.60 0.60 99 1014.6
20260509000503 74 111 0.0 4.3 0.00 0.60 0.60 99 1014.2
20260508235957 75 145 0.9 1.7 0.00 0.60 0.60 99 1014.7
20260508235456 75 225 1.7 1.7 0.00 0.60 0.60 99 1014.8
20260508234952 75 112 0.0 2.6 0.00 0.60 0.60 99 1015.0
20260508234449 76 117 0.0 2.6 0.00 0.60 0.60 99 1014.9
20260508233947 76 146 1.7 3.5 0.00 0.60 0.60 99 1015.0
20260508233446 77 142 1.7 7.0 0.00 0.60 0.60 99 1015.0
20260508232942 77 213 0.0 6.1 0.00 0.60 0.60 99 1015.0
20260508232439 77 144 0.0 2.6 0.00 0.60 0.60 99 1015.0
20260508231937 76 105 0.9 3.5 0.00 0.60 0.60 99 1015.2
20260508231434 76 195 1.7 3.5 0.00 0.60 0.60 99 1015.2
20260508230931 76 225 0.0 3.5 0.00 0.60 0.60 99 1015.2
20260508230427 76 203 2.6 6.1 0.00 0.60 0.60 99 1015.2
20260508225924 76 184 1.7 5.2 0.00 0.60 0.60 99 1015.3
20260508225421 77 195 0.0 2.6 0.00 0.60 0.60 99 1015.3
20260508224919 78 223 3.5 3.5 0.00 0.60 0.60 99 1015.0
20260508224416 78 140 0.0 2.6 0.00 0.60 0.60 99 1015.2
20260508223913 78 100 0.0 3.5 0.00 0.60 0.60 99 1015.4
20260508223411 78 201 1.7 3.5 0.00 0.60 0.60 99 1015.2
20260508222908 78 157 1.7 2.6 0.00 0.60 0.60 99 1015.3
20260508222405 79 203 0.9 2.6 0.00 0.60 0.60 99 1015.3
20260508221902 81 165 1.7 2.6 0.00 0.60 0.60 99 1015.2
20260508221357 81 0 0.0 3.5 0.00 0.60 0.60 99 1014.8
20260508220854 80 135 1.7 3.5 0.00 0.60 0.60 99 1014.8
20260508220350 80 112 0.0 1.7 0.00 0.60 0.60 99 1014.9
20260508215847 79 254 0.9 2.6 0.00 0.60 0.60 99 1015.2
20260508215344 79 100 0.0 3.5 0.00 0.60 0.60 99 1014.9
20260508214841 79 140 1.7 2.6 0.00 0.60 0.60 99 1015.0
20260508214338 80 109 0.0 4.3 0.00 0.60 0.60 99 1014.9
20260508213834 80 105 0.0 2.6 0.00 0.60 0.60 99 1015.0
20260508213332 79 245 0.0 3.5 0.00 0.60 0.60 99 1015.0
20260508212827 78 202 0.0 3.5 0.00 0.60 0.60 99 1015.2
20260508212324 79 132 1.7 3.5 0.00 0.60 0.60 99 1015.2
20260508211820 79 99 1.7 2.6 0.00 0.60 0.60 99 1015.2
20260508211315 79 283 0.0 3.5 0.00 0.60 0.60 99 1015.8
20260508210813 79 147 0.0 2.6 0.00 0.60 0.60 99 1015.9
20260508210310 79 79 0.0 4.3 0.00 0.60 0.60 99 1016.2
20260508205807 77 188 1.7 4.3 0.00 0.60 0.60 99 1016.6
20260508205306 76 135 1.7 2.6 0.00 0.60 0.60 99 1016.2
20260508204759 76 145 0.9 5.2 0.00 0.60 0.60 99 1016.4
20260508204256 76 270 0.9 6.1 0.00 0.60 0.60 99 1016.9
20260508203752 76 231 0.0 8.7 0.00 0.60 0.60 99 1016.8
20260508203249 77 240 0.9 3.5 0.00 0.60 0.60 99 1017.0
20260508202744 77 226 4.3 4.3 0.00 0.60 0.60 99 1016.8
20260508202242 77 143 2.6 7.8 0.00 0.60 0.60 99 1017.1
20260508201739 77 184 0.0 5.2 0.00 0.60 0.60 99 1017.2
20260508201235 77 280 4.3 9.6 0.00 0.60 0.60 99 1016.9
20260508200732 78 241 0.0 4.3 0.00 0.60 0.60 99 1017.0
20260508200228 79 159 1.7 5.2 0.00 0.60 0.60 99 1017.0
20260508195725 79 203 0.9 4.3 0.00 0.60 0.60 99 1017.3
20260508195221 79 173 0.0 4.3 0.00 0.60 0.60 99 1017.2
20260508194718 79 98 0.9 4.3 0.00 0.60 0.60 99 1017.0
20260508194215 79 105 0.0 2.6 0.00 0.60 0.60 99 1017.1
20260508193712 81 106 0.0 1.7 0.00 0.60 0.60 99 1017.0
20260508193208 80 265 1.7 3.5 0.00 0.60 0.60 99 1017.5
20260508192705 81 132 0.0 1.7 0.00 0.60 0.60 99 1017.3
20260508192202 80 195 0.0 2.6 0.00 0.60 0.60 99 1017.4
20260508191700 80 109 0.0 2.6 0.00 0.60 0.60 99 1017.6
20260508191156 80 215 0.0 1.7 0.00 0.60 0.60 99 1017.3
20260508190654 80 131 0.0 4.3 0.00 0.60 0.60 99 1017.6
20260508190149 78 90 0.9 2.6 0.00 0.60 0.60 99 1017.5
20260508185646 78 103 0.0 3.5 0.00 0.60 0.60 99 1017.3
20260508185144 79 105 0.0 3.5 0.00 0.60 0.60 99 1017.6
20260508184641 78 141 2.6 2.6 0.00 0.60 0.60 99 1017.4
20260508184138 78 105 0.0 2.6 0.00 0.60 0.60 99 1017.5
20260508183635 77 117 0.0 2.6 0.00 0.60 0.60 99 1017.7
20260508183130 76 132 1.7 3.5 0.00 0.60 0.60 99 1018.0
20260508182627 79 90 0.0 1.7 0.00 0.60 0.60 99 1018.1
20260508182124 78 117 0.9 1.7 0.00 0.60 0.60 99 1018.3
20260508181619 77 114 0.0 3.5 0.00 0.60 0.60 99 1018.3
20260508181117 77 127 1.7 1.7 0.00 0.60 0.60 99 1018.5
20260508180613 77 103 0.0 2.6 0.00 0.60 0.60 99 1018.5
20260508180110 77 48 0.0 1.7 0.00 0.60 0.60 99 1018.3
20260508175607 77 131 1.7 2.6 0.00 0.60 0.60 99 1018.6
20260508175104 76 63 2.6 2.6 0.00 0.60 0.60 99 1018.5
20260508174601 76 105 0.9 2.6 0.00 0.60 0.60 99 1018.5
20260508174058 76 105 0.9 4.3 0.00 0.60 0.60 99 1018.7
20260508173555 76 195 0.0 0.9 0.00 0.60 0.60 99 1018.8